Back to catalog

KUIPER-00209

AliveCommunicationsLEO
NORAD 67776·PAYLOAD·🇺🇸 United States

Launched Feb 12, 2026 from Vandenberg Space Force Base

Loading…

Next Passes (next 24 hours)

TLE

FreshSource: CelesTrak SupGP

Epoch: Sep 14, 2026, 19:58 UTC

1 67776C 26030N   26257.83250000 -.00010644  00000+0 -13938-2 0  2573
2 67776  51.8981  91.8094 0000895 113.8638 195.1160 14.79930459    15

Track KUIPER-00209 in real time with AllMySat

Download on the App Store